[[{"header":{"parameterUnit":"m.s-1","parameterCategory":2,"la1":30.2991,"la2":30.254,"lo1":-89.0895,"lo2":-89.0444,"dy":0.0017,"dx":0.0017,"nx":28,"ny":28,"refTime":"2025-07-12T09:00:00:Z","depth":"0","parameterNumber":2,"parameterNumberName":"U-component_of_CURRENTS"},"data":[0,0,0,0,0,0,0,0,0,0,0,0,0,0,0,0,0,0,0,0,0,0,0,0,0,0,0,0,0,0,0,0,0,0,0,0,0,0,0,0,0,0,0,0,0,0,0,0,0,0,0,0,0,0,0,0,0,0,0.0224,0.0224,0,0.023,0.023,0.023,0.0217,0.0217,0.0217,0.0216,0.0249,0.0251,0.0252,0,0,0,0,0,0,0,0,0,0,0,0,0,0.0193,0.0194,0.0224,0.0224,0.0224,0.023,0.023,0.023,0.0218,0.0217,0.0216,0.0216,0.0249,0.0251,0.0252,0,0,0,0,0,0,0,0,0,0,0,0,0,0.0204,0.0194,0.0224,0.0218,0.0217,0.023,0.023,0.023,0.0218,0.0217,0.0216,0.0216,0.0249,0.025,0.0252,0.0278,0,0,0.0258,0.0259,0,0,0,0,0,0,0,0,0.0204,0.0205,0.0219,0.0218,0.0218,0.0222,0.0231,0.0247,0.0218,0.0218,0.0216,0.0215,0.0243,0.0245,0.0248,0.028,0.0281,0.0259,0.026,0.0261,0.0261,0,0,0,0,0,0,0,0.0203,0.0205,0.0227,0.0219,0.0218,0.0212,0.0213,0.0234,0.0235,0.0218,0.0217,0.0217,0.0243,0.0246,0.0249,0.0282,0.0259,0.026,0.0262,0.0262,0.0426,0.0429,0,0,0,0,0,0,0.0202,0.0205,0.0226,0.0227,0.0208,0.0213,0.0214,0.0221,0.0234,0.0235,0.0218,0.0216,0.0243,0.0247,0.025,0.0377,0.0261,0.0262,0.0264,0.0423,0.0426,0.043,0,0,0,0,0,0,0.0202,0.0205,0.0226,0.0215,0.0217,0.0214,0.0223,0.0222,0.0231,0.0234,0.0235,0.0228,0.0243,0.0247,0.0292,0.0374,0.0263,0.0265,0.0419,0.0424,0.0428,0.0569,0,0,0,0,0,0,0.0201,0.0205,0.0219,0.0215,0.0217,0.025,0.0223,0.0223,0.0231,0.023,0.0243,0.0245,0.0243,0.0289,0.0294,0.0375,0.0267,0.0415,0.0421,0.0427,0.056,0.0578,0.0593,0,0,0,0,0,0.02,0.0227,0.022,0.0223,0.0234,0.0251,0.0253,0.0248,0.0233,0.0251,0.0263,0.0245,0.0331,0.0293,0.0298,0.0381,0.0412,0.0419,0.0426,0.0553,0.0574,0.0592,0,0,0,0,0,0,0.0228,0.0228,0.022,0.0247,0.0253,0.0249,0.0269,0.0256,0.0278,0.028,0.0273,0.0278,0.035,0.0342,0.03,0.0446,0.0374,0.0382,0.0469,0.0489,0.0505,0.0609,0.0268,0,0,0,0,0,0.0239,0.0259,0.0253,0.0279,0.0283,0.0276,0.0283,0.0278,0.029,0.0297,0.0302,0.0329,0.0384,0.0413,0.0438,0.0513,0.0607,0.0573,0.059,0.0604,0.0693,0.0905,0.0951,0.0453,0.0453,0.0453,0,0,0.026,0.0262,0.0275,0.0287,0.0292,0.0329,0.028,0.03,0.0351,0.03,0.0369,0.0375,0.0411,0.05,0.0534,0.0506,0.0786,0.0613,0.0625,0.0709,0.0918,0.0967,0.1011,0.0458,0.0457,0.0456,0,0,0.0324,0.0312,0.0355,0.0363,0.0373,0.0372,0.038,0.038,0.0401,0.0452,0.0452,0.0533,0.0553,0.0646,0.0686,0.0815,0.0855,0.0787,0.0973,0.1176,0.1221,0.1261,0.1415,0.1469,0.0808,0.0809,0.0809,0,0.0354,0.0411,0.0372,0.0417,0.0452,0.0399,0.047,0.048,0.0497,0.057,0.0491,0.0659,0.0658,0.087,0.0909,0.0865,0.096,0.0889,0.1205,0.1247,0.1286,0.1434,0.1492,0.0816,0.0815,0.0814,0.0814,0,0.0454,0.0501,0.0529,0.0575,0.0596,0.0647,0.0651,0.0689,0.0687,0.0728,0.0889,0.0905,0.1035,0.1028,0.1007,0.1291,0.1259,0.119,0.1165,0.1347,0.1488,0.1546,0.0827,0.0824,0.0822,0.082,0,0,0.0561,0.0597,0.0617,0.0677,0.0694,0.0736,0.0819,0.0933,0.1046,0.1063,0.1256,0.1348,0.1371,0.1425,0.1417,0.1586,0.1902,0.1517,0.1524,0.169,0.2344,0.2236,0.2286,0.1884,0.1895,0.1904,0.2321,0,0.068,0.0802,0.0785,0.0926,0.1004,0.099,0.1084,0.1168,0.1224,0.1374,0.1467,0.1605,0.1514,0.1583,0.1755,0.1853,0.2065,0.1796,0.2129,0.2141,0.2041,0.2355,0.2316,0.2678,0.2377,0.2386,0.2393,0,0.0835,0.0893,0.1048,0.115,0.1184,0.1249,0.143,0.1498,0.1671,0.1719,0.189,0.1919,0.218,0.2038,0.2424,0.225,0.2359,0.2424,0.244,0.2355,0.2144,0.2453,0.2793,0.2695,0.2481,0.2474,0.2468,0,0.1011,0.1106,0.1247,0.1278,0.1361,0.1454,0.1504,0.1646,0.175,0.1961,0.2066,0.232,0.2453,0.266,0.2743,0.2633,0.3135,0.2987,0.3024,0.3012,0.3063,0.3037,0.3381,0.3359,0.3358,0.3357,0.3356,0,0.1199,0.1318,0.1338,0.1426,0.1597,0.16,0.1806,0.1876,0.2029,0.2177,0.2267,0.2429,0.2621,0.2851,0.2929,0.3167,0.3307,0.3187,0.3175,0.3097,0.3071,0.3043,0.3001,0.3373,0.3369,0.3366,0.3364,0,0.1408,0.1423,0.1581,0.1665,0.1695,0.1823,0.1929,0.2057,0.2172,0.237,0.2443,0.2636,0.2896,0.3067,0.3397,0.3404,0.3563,0.366,0.3518,0.3482,0.3348,0.3314,0.3538,0.3499,0.383,0.3831,0.3831,0,0.1534,0.1635,0.1744,0.1799,0.1842,0.198,0.2058,0.2147,0.2239,0.2458,0.2556,0.2851,0.2991,0.3424,0.3562,0.38,0.3659,0.3862,0.3659,0.3469,0.3427,0.3171,0.3102,0.3784,0.3785,0.3785,0.3785,0,0.174,0.1773,0.1858,0.1962,0.2048,0.2138,0.2229,0.2315,0.2396,0.2531,0.2672,0.2804,0.3178,0.3368,0.3656,0.3784,0.3704,0.3864,0.3787,0.3581,0.323,0.3136,0.3316,0.3786,0.3786,0.3786,0.3786,0.3786,0.1852,0.1924,0.1983,0.2087,0.2165,0.221,0.226,0.2318,0.2423,0.2524,0.2672,0.2806,0.3136,0.3512,0.3622,0.3786,0.3709,0.3743,0.3774,0.3567,0.3388,0.3527,0.386,0.386,0.3861,0.3861,0.3861,0,0.1913,0.1957,0.2068,0.2137,0.2189,0.2224,0.2292,0.2292,0.2327,0.2462,0.2551,0.2806,0.308,0.3349,0.367,0.3685,0.3543,0.3675,0.3388,0.3371,0.3664,0.351,0.3638,0.3638,0.3638,0.3638,0.3638,0.3638,0.1926,0.1998,0.2038,0.2097,0.2136,0.2141,0.2144,0.216,0.2223,0.2303,0.2394,0.2517,0.2889,0.3379,0.358,0.3587,0.3413,0.3325,0.3291,0.3544,0.355,0.3555,0.3399,0.3502,0.3502,0.2849,0.2845,0.2843]},{"header":{"parameterUnit":"m.s-1","parameterCategory":2,"la1":30.2991,"la2":30.254,"lo1":-89.0895,"lo2":-89.0444,"dy":0.0017,"dx":0.0017,"nx":28,"ny":28,"refTime":"2025-07-12T09:00:00:Z","depth":"0","parameterNumber":3,"parameterNumberName":"V-component_of_CURRENTS"},"data":[0,0,0,0,0,0,0,0,0,0,0,0,0,0,0,0,0,0,0,0,0,0,0,0,0,0,0,0,0,0,0,0,0,0,0,0,0,0,0,0,0,0,0,0,0,0,0,0,0,0,0,0,0,0,0,0,0,0,0.0632,0.0631,0,0.0562,0.0561,0.056,0.0541,0.0541,0.0542,0.0542,0.0502,0.05,0.0499,0,0,0,0,0,0,0,0,0,0,0,0,0,0.0725,0.0723,0.0632,0.0631,0.063,0.0562,0.0561,0.056,0.0541,0.0541,0.0542,0.0543,0.0502,0.05,0.0499,0,0,0,0,0,0,0,0,0,0,0,0,0,0.0671,0.0722,0.0632,0.0613,0.0611,0.0562,0.0561,0.0559,0.0541,0.0541,0.0542,0.0543,0.0503,0.0501,0.0498,0.0469,0,0,0.0491,0.049,0,0,0,0,0,0,0,0,0.0674,0.0668,0.0617,0.0615,0.0612,0.0562,0.0579,0.0531,0.054,0.0566,0.0542,0.0543,0.0525,0.0521,0.0504,0.0467,0.0465,0.0491,0.049,0.0489,0.0488,0,0,0,0,0,0,0,0.0678,0.0671,0.0603,0.0616,0.0613,0.06,0.0594,0.0569,0.0542,0.0564,0.0563,0.0556,0.0524,0.0506,0.0503,0.0464,0.0491,0.0489,0.0488,0.0487,0.0419,0.0419,0,0,0,0,0,0,0.0689,0.0674,0.0605,0.0601,0.0647,0.0598,0.0591,0.0576,0.0541,0.0537,0.0556,0.0556,0.051,0.0506,0.0501,0.0538,0.0489,0.0486,0.0485,0.042,0.0419,0.0419,0,0,0,0,0,0,0.0691,0.0683,0.0608,0.0638,0.0627,0.0596,0.058,0.0574,0.0556,0.0535,0.0531,0.0543,0.051,0.0505,0.0477,0.0533,0.0485,0.0483,0.042,0.042,0.0419,0.0564,0,0,0,0,0,0,0.0694,0.0684,0.0677,0.0638,0.0626,0.0578,0.0579,0.0573,0.0552,0.0551,0.0523,0.052,0.051,0.048,0.0475,0.0529,0.0481,0.0421,0.042,0.0419,0.0559,0.0568,0.0575,0,0,0,0,0,0.0697,0.0683,0.0676,0.0668,0.0616,0.0578,0.057,0.055,0.0551,0.0537,0.052,0.0521,0.0472,0.0477,0.0471,0.0527,0.0421,0.042,0.0419,0.0556,0.0566,0.0575,0,0,0,0,0,0,0.0718,0.0679,0.0671,0.0645,0.0615,0.0575,0.0561,0.0547,0.0521,0.0524,0.0506,0.0501,0.0497,0.0469,0.0476,0.0497,0.045,0.0448,0.0556,0.0566,0.0574,0.0678,0.048,0,0,0,0,0,0.072,0.0701,0.0661,0.0642,0.0626,0.0593,0.0575,0.0562,0.0535,0.0524,0.0507,0.049,0.0485,0.0491,0.0461,0.0472,0.0483,0.05,0.0508,0.0516,0.059,0.0635,0.0657,0.0416,0.0416,0.0416,0,0,0.0726,0.07,0.0691,0.0646,0.0621,0.062,0.0584,0.0557,0.0582,0.0524,0.0539,0.0502,0.0483,0.0499,0.0498,0.0493,0.0575,0.0515,0.0523,0.0594,0.0637,0.0662,0.0684,0.0415,0.0416,0.0416,0,0,0.0741,0.0701,0.07,0.0678,0.0643,0.0627,0.0621,0.0581,0.0587,0.0581,0.0561,0.0572,0.0529,0.0567,0.0575,0.0605,0.0598,0.0568,0.0729,0.077,0.0793,0.0813,0.0815,0.0835,0.0597,0.0597,0.0597,0,0.0757,0.0757,0.0693,0.0692,0.0706,0.0638,0.0669,0.0651,0.0615,0.0668,0.0601,0.0631,0.059,0.0697,0.0707,0.064,0.0638,0.0704,0.079,0.0811,0.083,0.0827,0.0847,0.0604,0.0603,0.0602,0.0602,0,0.078,0.0788,0.0782,0.0777,0.0768,0.0775,0.0755,0.0763,0.0757,0.0777,0.0844,0.0789,0.0842,0.0807,0.0773,0.0897,0.084,0.0781,0.0789,0.0865,0.0853,0.0872,0.0614,0.0611,0.0609,0.0608,0,0,0.0826,0.0812,0.0816,0.0859,0.0831,0.0838,0.0883,0.095,0.1045,0.1,0.1143,0.1117,0.1116,0.1124,0.1076,0.1117,0.1204,0.1025,0.1023,0.107,0.1277,0.1231,0.1245,0.1161,0.1166,0.1169,0.1202,0,0.089,0.0933,0.0911,0.0989,0.1027,0.1015,0.1081,0.113,0.1165,0.1266,0.1273,0.1342,0.1226,0.1261,0.1291,0.1231,0.1267,0.1201,0.1162,0.1162,0.1149,0.1272,0.1193,0.1218,0.122,0.1223,0.1226,0,0.0953,0.098,0.1062,0.1159,0.1177,0.1214,0.1363,0.1411,0.1528,0.1568,0.1657,0.1636,0.1719,0.1572,0.1586,0.1545,0.145,0.138,0.1377,0.1323,0.1155,0.1145,0.1251,0.1008,0.1254,0.1251,0.1249,0,0.1058,0.1113,0.12,0.1217,0.1283,0.136,0.1413,0.1526,0.1626,0.1772,0.1864,0.193,0.1971,0.1898,0.1743,0.1679,0.1725,0.1603,0.1477,0.1469,0.1399,0.1378,0.1319,0.1634,0.1634,0.1634,0.1634,0,0.1168,0.1243,0.1255,0.1303,0.1444,0.1462,0.1644,0.1713,0.186,0.2009,0.2027,0.2151,0.2056,0.2045,0.187,0.1758,0.1824,0.1575,0.1515,0.1433,0.1417,0.1196,0.1098,0.1635,0.1635,0.1635,0.1635,0,0.1287,0.1286,0.1388,0.1462,0.1491,0.1593,0.174,0.1879,0.1996,0.2189,0.2243,0.2356,0.2353,0.2219,0.2111,0.1935,0.1689,0.1728,0.1626,0.1557,0.1211,0.1124,0.113,0.1053,0.1633,0.1633,0.1633,0,0.1353,0.1408,0.1484,0.153,0.1566,0.1699,0.18,0.1934,0.2071,0.2301,0.2406,0.2497,0.2566,0.2422,0.2123,0.1874,0.169,0.1649,0.153,0.1258,0.1116,0.1064,0.0994,0.1455,0.1454,0.1452,0.1451,0,0.1474,0.1488,0.155,0.1633,0.1724,0.1852,0.1995,0.2116,0.2283,0.244,0.2634,0.2719,0.261,0.2383,0.2075,0.1872,0.1501,0.1613,0.1375,0.1059,0.0963,0.0833,0.1326,0.1439,0.144,0.1441,0.1442,0.1442,0.1541,0.1595,0.1639,0.1731,0.1833,0.1964,0.2074,0.2223,0.2415,0.2622,0.2734,0.2852,0.2586,0.2172,0.1866,0.1291,0.1377,0.1102,0.1042,0.1031,0.0917,0.1387,0.1399,0.14,0.1401,0.1402,0.1403,0,0.1594,0.1634,0.1725,0.1817,0.1931,0.1977,0.2172,0.2275,0.2451,0.2649,0.2798,0.2756,0.2303,0.1872,0.1134,0.0749,0.0628,0.0585,0.0459,0.0432,0.0867,0.0811,0.0644,0.0644,0.0644,0.0645,0.0645,0.0645,0.1614,0.1677,0.1716,0.186,0.1937,0.208,0.2178,0.2324,0.2476,0.2676,0.277,0.2888,0.261,0.1372,0.048,0.0263,-0.0029,-0.004,-0.0109,0.0091,0.0132,0.0171,0.0092,-0.0223,-0.0224,-0.0562,-0.0565,-0.0568]}],[{"header":{"parameterUnit":"m.s-1","parameterCategory":2,"la1":30.2991,"la2":30.254,"lo1":-89.0895,"lo2":-89.0444,"dy":0.0017,"dx":0.0017,"nx":28,"ny":28,"refTime":"2025-07-12T09:00:00:Z","depth":"2","parameterNumber":2,"parameterNumberName":"U-component_of_CURRENTS"},"data":[0,0,0,0,0,0,0,0,0,0,0,0,0,0,0,0,0,0,0,0,0,0,0,0,0,0,0,0,0,0,0,0,0,0,0,0,0,0,0,0,0,0,0,0,0,0,0,0,0,0,0,0,0,0,0,0,0,0,0.0186,0.0187,0,0.0195,0.0195,0.0195,0.0176,0.0176,0.0175,0.0175,0.0128,0.0127,0.0126,0,0,0,0,0,0,0,0,0,0,0,0,0,0.0127,0.0128,0.0186,0.0187,0.0187,0.0195,0.0195,0.0195,0.0176,0.0176,0.0175,0.0175,0.0128,0.0127,0.0126,0,0,0,0,0,0,0,0,0,0,0,0,0,0.0143,0.0128,0.0186,0.0181,0.018,0.0195,0.0195,0.0195,0.0176,0.0176,0.0175,0.0174,0.0129,0.0127,0.0126,0.0129,0,0,0.0122,0.0121,0,0,0,0,0,0,0,0,0.0142,0.0145,0.0181,0.0181,0.0181,0.0186,0.0157,0.0171,0.0176,0.0175,0.0175,0.0174,0.0144,0.0142,0.0142,0.0126,0.0124,0.0122,0.0121,0.012,0.012,0,0,0,0,0,0,0,0.0141,0.0145,0.0187,0.0182,0.0181,0.0169,0.017,0.0159,0.016,0.0175,0.0174,0.018,0.0143,0.0143,0.014,0.0124,0.0122,0.0121,0.012,0.0119,0.0155,0.0156,0,0,0,0,0,0,0.0148,0.0144,0.0187,0.0188,0.0163,0.017,0.0172,0.0183,0.0161,0.0158,0.018,0.0179,0.0146,0.0142,0.0139,0.0183,0.012,0.0119,0.0118,0.0153,0.0155,0.0157,0,0,0,0,0,0,0.0147,0.0152,0.0187,0.0167,0.0171,0.0172,0.0184,0.0183,0.0183,0.0166,0.0161,0.0181,0.0145,0.014,0.0134,0.0179,0.0118,0.0117,0.0151,0.0154,0.0156,0.0243,0,0,0,0,0,0,0.0145,0.0151,0.0154,0.0168,0.0173,0.0202,0.0185,0.0184,0.0188,0.0186,0.0165,0.016,0.0144,0.0137,0.0133,0.0176,0.0116,0.0149,0.0152,0.0155,0.0238,0.0249,0.0258,0,0,0,0,0,0.0143,0.0155,0.0154,0.0159,0.0179,0.0203,0.0204,0.0201,0.0189,0.0196,0.018,0.0161,0.0156,0.0136,0.0132,0.0175,0.0147,0.0151,0.0155,0.0234,0.0247,0.0257,0,0,0,0,0,0,0.0122,0.0155,0.0154,0.0172,0.0189,0.0201,0.0206,0.0204,0.0198,0.0191,0.0169,0.0164,0.0181,0.0162,0.0141,0.0197,0.0154,0.0158,0.0216,0.0228,0.0237,0.0235,0.0115,0,0,0,0,0,0.0122,0.0145,0.0166,0.0181,0.019,0.0197,0.0203,0.0205,0.0206,0.0203,0.0191,0.0185,0.0196,0.0196,0.0193,0.0212,0.0193,0.0242,0.0252,0.026,0.0257,0.0254,0.0263,0.017,0.017,0.017,0,0,0.0121,0.0139,0.0152,0.0179,0.0189,0.0214,0.0199,0.0216,0.0237,0.0198,0.0214,0.0211,0.0207,0.0236,0.0244,0.0224,0.0285,0.0265,0.0272,0.0264,0.0259,0.0268,0.0276,0.0173,0.0172,0.0172,0,0,0.0138,0.0145,0.0172,0.0191,0.0213,0.0222,0.0229,0.0246,0.0252,0.0271,0.0259,0.0277,0.0281,0.0296,0.0303,0.0361,0.0333,0.0372,0.0421,0.0419,0.0426,0.0432,0.0449,0.0456,0.038,0.038,0.038,0,0.0131,0.0168,0.0181,0.0211,0.0228,0.0229,0.0259,0.0273,0.0285,0.0295,0.0286,0.0315,0.0315,0.0359,0.0393,0.0385,0.0378,0.0378,0.0431,0.0436,0.0441,0.0456,0.0462,0.0385,0.0384,0.0384,0.0383,0,0.0172,0.0198,0.0215,0.0256,0.0276,0.0301,0.0326,0.0341,0.0348,0.0361,0.0397,0.04,0.0416,0.0441,0.0439,0.0488,0.0473,0.044,0.0399,0.0455,0.0468,0.0473,0.0392,0.039,0.0389,0.0387,0,0,0.016,0.0232,0.0234,0.0261,0.0301,0.0321,0.0361,0.0397,0.0416,0.044,0.0469,0.0518,0.0513,0.0521,0.0526,0.0541,0.0592,0.0515,0.0513,0.0528,0.0603,0.0676,0.0688,0.0564,0.0565,0.0565,0.061,0,0.0183,0.0247,0.0276,0.0329,0.0363,0.0383,0.0417,0.0448,0.0468,0.0493,0.0516,0.0544,0.0546,0.0562,0.058,0.0581,0.0604,0.0584,0.0548,0.0548,0.0602,0.0696,0.0642,0.0683,0.0614,0.0615,0.0615,0,0.0205,0.0247,0.0307,0.0369,0.0383,0.0413,0.0455,0.0489,0.0527,0.0544,0.0574,0.0579,0.0628,0.0606,0.0641,0.0626,0.0627,0.0626,0.0626,0.0662,0.063,0.061,0.0694,0.0622,0.0622,0.0621,0.0621,0,0.0186,0.0263,0.031,0.0332,0.0403,0.0428,0.0459,0.05,0.0531,0.0572,0.0596,0.0627,0.0655,0.0653,0.0682,0.0654,0.071,0.0659,0.0728,0.0732,0.0663,0.0662,0.0677,0.0677,0.0676,0.0676,0.0676,0,0.0192,0.023,0.0304,0.0329,0.0376,0.0424,0.0466,0.05,0.0548,0.0592,0.0618,0.0659,0.0666,0.0703,0.0699,0.0758,0.0724,0.0762,0.0758,0.0699,0.07,0.0612,0.0604,0.0678,0.0678,0.0677,0.0677,0,0.0166,0.0218,0.0272,0.0346,0.037,0.0399,0.0472,0.05,0.0553,0.061,0.063,0.0693,0.0756,0.0777,0.0794,0.0803,0.0827,0.0848,0.0803,0.0794,0.084,0.0836,0.0921,0.0924,0.0927,0.0929,0.0931,0,0.0159,0.0188,0.0269,0.0299,0.0334,0.0388,0.0422,0.0488,0.0524,0.0637,0.0662,0.0755,0.0822,0.0905,0.0933,0.0968,0.0921,0.0936,0.0882,0.0883,0.0869,0.0861,0.0853,0.0823,0.0823,0.0824,0.0825,0,0.0141,0.0169,0.0211,0.0275,0.0317,0.0371,0.043,0.0458,0.0546,0.061,0.0714,0.0785,0.091,0.0958,0.1034,0.1021,0.0929,0.0956,0.0955,0.079,0.08,0.0784,0.0777,0.0831,0.083,0.083,0.0829,0.0829,0.0114,0.0134,0.0192,0.0248,0.0306,0.0358,0.0385,0.0451,0.0517,0.0633,0.0721,0.0835,0.0898,0.1011,0.1015,0.1018,0.1046,0.098,0.0973,0.0966,0.0968,0.0985,0.1051,0.1051,0.1052,0.1052,0.1053,0,0.0082,0.0119,0.0168,0.0238,0.0289,0.0337,0.0396,0.0418,0.0486,0.0634,0.0747,0.0783,0.0882,0.0937,0.098,0.1012,0.0932,0.0958,0.084,0.0837,0.0834,0.0822,0.0869,0.0868,0.0868,0.0867,0,0,0.0066,0.0099,0.0131,0.0206,0.0268,0.0323,0.0352,0.0393,0.0479,0.0578,0.0685,0.0849,0.0929,0.0889,0.0902,0.0903,0.0844,0.0865,0.1016,0.0873,0.0868,0.086,0.0844,0,0,0,0,0]},{"header":{"parameterUnit":"m.s-1","parameterCategory":2,"la1":30.2991,"la2":30.254,"lo1":-89.0895,"lo2":-89.0444,"dy":0.0017,"dx":0.0017,"nx":28,"ny":28,"refTime":"2025-07-12T09:00:00:Z","depth":"2","parameterNumber":3,"parameterNumberName":"V-component_of_CURRENTS"},"data":[0,0,0,0,0,0,0,0,0,0,0,0,0,0,0,0,0,0,0,0,0,0,0,0,0,0,0,0,0,0,0,0,0,0,0,0,0,0,0,0,0,0,0,0,0,0,0,0,0,0,0,0,0,0,0,0,0,0,-0.0848,-0.0847,0,-0.0775,-0.0774,-0.0773,-0.0715,-0.0715,-0.0715,-0.0714,-0.0567,-0.0563,-0.056,0,0,0,0,0,0,0,0,0,0,0,0,0,-0.0916,-0.0915,-0.0848,-0.0847,-0.0846,-0.0775,-0.0774,-0.0772,-0.0715,-0.0715,-0.0714,-0.0714,-0.0568,-0.0564,-0.0559,0,0,0,0,0,0,0,0,0,0,0,0,0,-0.0868,-0.0915,-0.0848,-0.0811,-0.0807,-0.0775,-0.0773,-0.0772,-0.0716,-0.0715,-0.0714,-0.0714,-0.0569,-0.0564,-0.0559,-0.0538,0,0,-0.0542,-0.054,0,0,0,0,0,0,0,0,-0.087,-0.0865,-0.0817,-0.0813,-0.0809,-0.0755,-0.0744,-0.0691,-0.0716,-0.0748,-0.0714,-0.0713,-0.0624,-0.0614,-0.0601,-0.0531,-0.0525,-0.0542,-0.0539,-0.0536,-0.0535,0,0,0,0,0,0,0,-0.0874,-0.0868,-0.0817,-0.0816,-0.0811,-0.079,-0.0782,-0.0733,-0.0688,-0.0745,-0.0742,-0.0736,-0.0621,-0.0606,-0.0597,-0.0522,-0.0542,-0.0537,-0.0534,-0.0532,-0.0372,-0.0371,0,0,0,0,0,0,-0.0888,-0.0871,-0.0819,-0.0815,-0.0841,-0.0789,-0.0781,-0.0771,-0.069,-0.0678,-0.0737,-0.0734,-0.0615,-0.0603,-0.0591,-0.0523,-0.0537,-0.0532,-0.0528,-0.0373,-0.0372,-0.0371,0,0,0,0,0,0,-0.089,-0.0884,-0.0822,-0.0843,-0.0834,-0.0789,-0.0779,-0.077,-0.0741,-0.0685,-0.0671,-0.0715,-0.0614,-0.0599,-0.0543,-0.0519,-0.0529,-0.0524,-0.0374,-0.0373,-0.0371,-0.0412,0,0,0,0,0,0,-0.0892,-0.0885,-0.0874,-0.0844,-0.0833,-0.0791,-0.0779,-0.0769,-0.0741,-0.0736,-0.0662,-0.0648,-0.0613,-0.0552,-0.0538,-0.0511,-0.052,-0.0376,-0.0374,-0.0372,-0.0412,-0.0412,-0.0412,0,0,0,0,0,-0.0895,-0.0877,-0.0874,-0.0867,-0.0822,-0.0791,-0.0782,-0.0748,-0.074,-0.0721,-0.0681,-0.065,-0.0529,-0.0547,-0.0531,-0.0502,-0.0377,-0.0374,-0.0372,-0.0412,-0.0412,-0.0412,0,0,0,0,0,0,-0.0889,-0.0869,-0.0864,-0.0839,-0.0815,-0.0781,-0.0756,-0.0745,-0.0699,-0.0689,-0.0643,-0.0626,-0.0566,-0.0529,-0.0551,-0.0449,-0.0444,-0.0438,-0.048,-0.0479,-0.0479,-0.0518,-0.0516,0,0,0,0,0,-0.0889,-0.0874,-0.0853,-0.083,-0.0817,-0.0789,-0.077,-0.0751,-0.0714,-0.0693,-0.0649,-0.0595,-0.0545,-0.0511,-0.046,-0.0409,-0.0427,-0.0376,-0.0376,-0.0377,-0.0396,-0.0419,-0.0424,-0.0363,-0.0363,-0.0363,0,0,-0.088,-0.0867,-0.0857,-0.0829,-0.0804,-0.0785,-0.0774,-0.074,-0.0725,-0.0683,-0.0636,-0.0592,-0.0532,-0.0476,-0.0444,-0.0441,-0.0402,-0.0374,-0.0375,-0.0394,-0.0417,-0.0424,-0.043,-0.0361,-0.0362,-0.0362,0,0,-0.086,-0.0843,-0.0827,-0.0809,-0.078,-0.0767,-0.0759,-0.0724,-0.0705,-0.0663,-0.0631,-0.059,-0.05,-0.047,-0.0439,-0.0409,-0.0404,-0.0368,-0.0397,-0.0418,-0.0425,-0.0431,-0.0469,-0.0478,-0.0366,-0.0367,-0.0367,0,-0.0849,-0.083,-0.0815,-0.0796,-0.0782,-0.0762,-0.0744,-0.0723,-0.0677,-0.0669,-0.0646,-0.0556,-0.0504,-0.0462,-0.0448,-0.0412,-0.043,-0.0405,-0.0424,-0.043,-0.0435,-0.0472,-0.0482,-0.0368,-0.0368,-0.0368,-0.0368,0,-0.0824,-0.0805,-0.0789,-0.0768,-0.0752,-0.0727,-0.0711,-0.0692,-0.0672,-0.0659,-0.0615,-0.0562,-0.0517,-0.048,-0.0452,-0.0448,-0.0452,-0.0428,-0.0436,-0.0445,-0.0482,-0.0492,-0.0371,-0.037,-0.037,-0.0369,0,0,-0.0809,-0.078,-0.0772,-0.0765,-0.0737,-0.0722,-0.0705,-0.0691,-0.0688,-0.0646,-0.0644,-0.0567,-0.0558,-0.0525,-0.0485,-0.0496,-0.0546,-0.048,-0.048,-0.0542,-0.0613,-0.0589,-0.0597,-0.0529,-0.053,-0.0531,-0.0627,0,-0.0793,-0.0764,-0.0754,-0.0729,-0.0715,-0.0704,-0.0694,-0.0682,-0.0667,-0.0659,-0.0632,-0.0598,-0.0568,-0.0543,-0.0556,-0.0539,-0.0571,-0.0524,-0.0574,-0.0577,-0.0574,-0.0606,-0.0545,-0.0623,-0.0636,-0.0638,-0.0639,0,-0.0777,-0.0761,-0.0737,-0.0724,-0.0716,-0.0702,-0.0698,-0.0686,-0.0683,-0.0672,-0.0663,-0.0641,-0.0642,-0.0614,-0.0645,-0.0616,-0.0629,-0.0628,-0.0631,-0.0606,-0.057,-0.0611,-0.0639,-0.0655,-0.0653,-0.0652,-0.0651,0,-0.0785,-0.0752,-0.0738,-0.0728,-0.0708,-0.0703,-0.0693,-0.0689,-0.0675,-0.0686,-0.0673,-0.0689,-0.0669,-0.0707,-0.0693,-0.068,-0.0738,-0.0717,-0.0721,-0.072,-0.0677,-0.0669,-0.0771,-0.077,-0.077,-0.077,-0.077,0,-0.0781,-0.0765,-0.0739,-0.0729,-0.0714,-0.0705,-0.0692,-0.0691,-0.0683,-0.0653,-0.0678,-0.0652,-0.0689,-0.0707,-0.073,-0.0754,-0.0773,-0.075,-0.0747,-0.0687,-0.0679,-0.0705,-0.0696,-0.0774,-0.0773,-0.0772,-0.0771,0,-0.0786,-0.077,-0.0748,-0.0723,-0.0715,-0.0703,-0.0672,-0.0661,-0.066,-0.0625,-0.0623,-0.0635,-0.0656,-0.0699,-0.0748,-0.0774,-0.0814,-0.0816,-0.0751,-0.0738,-0.0785,-0.0776,-0.0866,-0.0866,-0.0866,-0.0866,-0.0867,0,-0.0784,-0.0773,-0.0739,-0.072,-0.0703,-0.0681,-0.066,-0.0649,-0.0624,-0.0588,-0.0565,-0.0582,-0.0557,-0.0653,-0.0703,-0.0779,-0.0801,-0.08,-0.0763,-0.081,-0.0797,-0.0788,-0.078,-0.0731,-0.073,-0.0729,-0.0728,0,-0.0772,-0.0757,-0.0735,-0.0697,-0.0669,-0.0637,-0.06,-0.0573,-0.0539,-0.0492,-0.0427,-0.0409,-0.0476,-0.0517,-0.0638,-0.0685,-0.0789,-0.0785,-0.0859,-0.0702,-0.0685,-0.0671,-0.0667,-0.072,-0.0721,-0.0722,-0.0722,-0.0722,-0.0748,-0.0728,-0.0693,-0.0657,-0.0627,-0.0575,-0.0522,-0.0465,-0.0391,-0.0279,-0.0302,-0.0229,-0.0359,-0.0444,-0.0555,-0.0674,-0.07,-0.0749,-0.075,-0.0753,-0.0706,-0.0688,-0.0718,-0.0718,-0.0719,-0.0719,-0.072,0,-0.0702,-0.068,-0.065,-0.0596,-0.055,-0.0537,-0.0463,-0.0391,-0.0261,-0.0163,-0.0078,-0.0123,-0.0192,-0.0331,-0.0471,-0.06,-0.0599,-0.0653,-0.0624,-0.0631,-0.0638,-0.0584,-0.0564,-0.0564,-0.0564,-0.0564,0,0,-0.067,-0.0625,-0.0611,-0.0525,-0.0483,-0.0392,-0.0328,-0.0218,-0.0131,0.0005,0.0086,0.0087,-0.0109,-0.0188,-0.037,-0.0451,-0.0509,-0.0467,-0.058,-0.0531,-0.0535,-0.0683,-0.0607,0,0,0,0,0]}],[{"header":{"parameterUnit":"m.s-1","parameterCategory":2,"la1":30.2991,"la2":30.254,"lo1":-89.0895,"lo2":-89.0444,"dy":0.0017,"dx":0.0017,"nx":28,"ny":28,"refTime":"2025-07-12T09:00:00:Z","depth":"4","parameterNumber":2,"parameterNumberName":"U-component_of_CURRENTS"},"data":[0,0,0,0,0,0,0,0,0,0,0,0,0,0,0,0,0,0,0,0,0,0,0,0,0,0,0,0,0,0,0,0,0,0,0,0,0,0,0,0,0,0,0,0,0,0,0,0,0,0,0,0,0,0,0,0,0,0,0.0177,0.0177,0,0.0179,0.0179,0.0179,0.0191,0.0192,0.0192,0.0192,0.0202,0.0202,0.0202,0,0,0,0,0,0,0,0,0,0,0,0,0,0.0185,0.0184,0.0177,0.0177,0.0177,0.0179,0.0179,0.0179,0.0191,0.0192,0.0192,0.0192,0.0202,0.0202,0.0202,0,0,0,0,0,0,0,0,0,0,0,0,0,0.0183,0.0184,0.0177,0.0184,0.0184,0.0179,0.0179,0.0179,0.0191,0.0192,0.0192,0.0192,0.0202,0.0202,0.0202,0.0193,0,0,0.0202,0.0202,0,0,0,0,0,0,0,0,0.0183,0.0183,0.0183,0.0183,0.0184,0.0186,0.0185,0.0184,0.0191,0.0188,0.0192,0.0193,0.0197,0.0197,0.0196,0.0193,0.0194,0.0202,0.0202,0.0202,0.0202,0,0,0,0,0,0,0,0.0184,0.0183,0.0178,0.0183,0.0183,0.0187,0.0187,0.0185,0.019,0.0189,0.019,0.019,0.0197,0.0196,0.0197,0.0194,0.0202,0.0202,0.0202,0.0202,0.0213,0.0213,0,0,0,0,0,0,0.0183,0.0183,0.0178,0.0178,0.0185,0.0186,0.0186,0.0184,0.019,0.0191,0.0189,0.019,0.0196,0.0197,0.0197,0.021,0.0202,0.0202,0.0202,0.0212,0.0213,0.0213,0,0,0,0,0,0,0.0183,0.0182,0.0178,0.0181,0.0181,0.0185,0.0183,0.0184,0.0192,0.019,0.0192,0.0197,0.0197,0.0197,0.0202,0.021,0.0202,0.0201,0.0212,0.0213,0.0213,0.0222,0,0,0,0,0,0,0.0183,0.0182,0.0182,0.0181,0.018,0.0179,0.0183,0.0184,0.0191,0.0192,0.0197,0.0198,0.0197,0.0202,0.0202,0.021,0.0201,0.0212,0.0212,0.0213,0.0221,0.0223,0.0224,0,0,0,0,0,0.0183,0.0178,0.0181,0.0181,0.0179,0.0179,0.0179,0.0184,0.0191,0.0193,0.0198,0.0198,0.0206,0.0202,0.0202,0.021,0.0211,0.0212,0.0213,0.0221,0.0223,0.0224,0,0,0,0,0,0,0.0178,0.0178,0.0183,0.0177,0.0181,0.0181,0.0181,0.0187,0.0193,0.0197,0.0198,0.0199,0.0208,0.0207,0.0202,0.0216,0.021,0.0211,0.0216,0.0218,0.0219,0.0225,0.0201,0,0,0,0,0,0.0177,0.0172,0.0178,0.0172,0.0175,0.0181,0.0182,0.0188,0.0192,0.0195,0.0201,0.0206,0.0209,0.0212,0.0214,0.0218,0.0224,0.0224,0.0226,0.0227,0.0232,0.0243,0.0246,0.0215,0.0215,0.0215,0,0,0.0171,0.0171,0.0168,0.0171,0.0173,0.0178,0.0183,0.0187,0.0193,0.0194,0.0206,0.0211,0.0211,0.0218,0.0222,0.0219,0.024,0.0228,0.0229,0.0233,0.0244,0.0247,0.025,0.0216,0.0216,0.0216,0,0,0.0158,0.0161,0.0157,0.0162,0.017,0.0176,0.018,0.019,0.0198,0.0209,0.0212,0.0221,0.0228,0.023,0.023,0.024,0.0247,0.0244,0.0255,0.0265,0.0268,0.027,0.0287,0.0291,0.0244,0.0244,0.0244,0,0.0154,0.0151,0.0156,0.0158,0.0164,0.0177,0.0183,0.0189,0.0201,0.0211,0.0216,0.0234,0.0234,0.024,0.0246,0.0243,0.0254,0.0248,0.0267,0.0269,0.0272,0.0289,0.0293,0.0245,0.0245,0.0245,0.0244,0,0.0143,0.0144,0.0142,0.0151,0.0159,0.0164,0.018,0.0193,0.021,0.0221,0.024,0.0243,0.0255,0.0256,0.0255,0.0271,0.0276,0.0267,0.0263,0.0275,0.0292,0.0297,0.0245,0.0245,0.0245,0.0245,0,0,0.0124,0.0134,0.0133,0.014,0.016,0.0164,0.0181,0.0201,0.0216,0.0233,0.0254,0.0261,0.0273,0.0275,0.0275,0.0284,0.031,0.0287,0.0287,0.0304,0.0344,0.0367,0.0374,0.0307,0.0308,0.0308,0.0352,0,0.0116,0.0117,0.0128,0.0136,0.0142,0.0166,0.0181,0.0202,0.0225,0.0248,0.026,0.0279,0.0276,0.0288,0.0297,0.0307,0.0321,0.03,0.033,0.0331,0.035,0.0379,0.031,0.0355,0.0356,0.0356,0.0357,0,0.0107,0.0108,0.0112,0.0135,0.0142,0.0149,0.0184,0.0201,0.0235,0.0257,0.0281,0.0298,0.0318,0.0313,0.0341,0.033,0.0343,0.0349,0.035,0.0373,0.0362,0.0338,0.0364,0.0364,0.0363,0.0363,0.0362,0,0.009,0.0101,0.0104,0.0109,0.0134,0.0144,0.0164,0.02,0.022,0.0264,0.0292,0.0315,0.0341,0.0352,0.0385,0.0363,0.0424,0.0389,0.0421,0.0422,0.0382,0.0379,0.0412,0.0412,0.0412,0.0412,0.0412,0,0.0079,0.0081,0.0092,0.0091,0.0099,0.0129,0.0147,0.0177,0.0219,0.0249,0.0292,0.0326,0.0356,0.0399,0.0403,0.0443,0.0441,0.0436,0.0439,0.0386,0.0383,0.0386,0.0382,0.0414,0.0413,0.0413,0.0413,0,0.0058,0.0066,0.0066,0.0082,0.0087,0.0092,0.0126,0.0142,0.0198,0.024,0.026,0.0342,0.0409,0.0448,0.0486,0.048,0.0503,0.0518,0.0485,0.0483,0.0483,0.0479,0.0535,0.0537,0.0538,0.0539,0.0539,0,0.0048,0.0042,0.0046,0.004,0.0042,0.0054,0.0062,0.0116,0.0141,0.0248,0.0268,0.0368,0.042,0.0502,0.0535,0.0571,0.0565,0.0571,0.05,0.0501,0.0498,0.0492,0.0487,0.0541,0.0541,0.0542,0.0542,0,0.0021,0.002,0.0016,0.0006,0.0004,0.0011,0.0035,0.0057,0.0136,0.0179,0.0284,0.0357,0.045,0.0508,0.0572,0.058,0.0557,0.0582,0.0578,0.0511,0.0508,0.0503,0.0497,0.0546,0.0545,0.0545,0.0545,0,-0.0005,-0.0014,-0.0019,-0.0025,-0.0028,-0.0011,0.0003,0.0054,0.0097,0.0217,0.0249,0.0369,0.044,0.0516,0.0559,0.0598,0.0568,0.053,0.0528,0.0525,0.0506,0.0501,0.0551,0,0,0,0,0,-0.003,-0.0037,-0.0046,-0.0043,-0.0041,-0.003,-0.0003,0.0021,0.0093,0.0157,0.021,0.0299,0.0413,0.0473,0.0512,0.0549,0.0563,0.0591,0.0514,0.0567,0.0562,0.0545,0,0,0,0,0,0,-0.0048,-0.0058,-0.0053,-0.005,-0.0043,-0.0028,-0.0006,0.0041,0.0084,0.0159,0.0222,0.0278,0.0388,0.0392,0.0506,0.0523,0.047,0.0654,0.0653,0.0569,0.0565,0.0562,0.0542,0,0,0,0,0]},{"header":{"parameterUnit":"m.s-1","parameterCategory":2,"la1":30.2991,"la2":30.254,"lo1":-89.0895,"lo2":-89.0444,"dy":0.0017,"dx":0.0017,"nx":28,"ny":28,"refTime":"2025-07-12T09:00:00:Z","depth":"4","parameterNumber":3,"parameterNumberName":"V-component_of_CURRENTS"},"data":[0,0,0,0,0,0,0,0,0,0,0,0,0,0,0,0,0,0,0,0,0,0,0,0,0,0,0,0,0,0,0,0,0,0,0,0,0,0,0,0,0,0,0,0,0,0,0,0,0,0,0,0,0,0,0,0,0,0,-0.024,-0.024,0,-0.0251,-0.0251,-0.0251,-0.0295,-0.0296,-0.0297,-0.0298,-0.037,-0.0371,-0.0372,0,0,0,0,0,0,0,0,0,0,0,0,0,-0.0262,-0.0262,-0.024,-0.024,-0.024,-0.0251,-0.0251,-0.0251,-0.0295,-0.0296,-0.0297,-0.0298,-0.0369,-0.037,-0.0372,0,0,0,0,0,0,0,0,0,0,0,0,0,-0.0261,-0.0262,-0.024,-0.0263,-0.0265,-0.0251,-0.0251,-0.0251,-0.0295,-0.0296,-0.0298,-0.0299,-0.0369,-0.037,-0.0372,-0.0352,0,0,-0.0376,-0.0377,0,0,0,0,0,0,0,0,-0.0261,-0.0261,-0.0259,-0.0261,-0.0263,-0.0272,-0.0285,-0.0288,-0.0294,-0.0284,-0.0298,-0.03,-0.0341,-0.0345,-0.0344,-0.0356,-0.0359,-0.0377,-0.0377,-0.0378,-0.0379,0,0,0,0,0,0,0,-0.0261,-0.026,-0.0245,-0.0259,-0.0262,-0.0274,-0.0276,-0.0286,-0.0306,-0.0285,-0.0288,-0.0288,-0.0343,-0.0342,-0.0346,-0.036,-0.0377,-0.0378,-0.0379,-0.0379,-0.0434,-0.0435,0,0,0,0,0,0,-0.0257,-0.026,-0.0244,-0.0245,-0.0265,-0.0273,-0.0274,-0.0269,-0.0305,-0.0311,-0.0287,-0.029,-0.0339,-0.0344,-0.0349,-0.0402,-0.0378,-0.038,-0.038,-0.0434,-0.0434,-0.0435,0,0,0,0,0,0,-0.0257,-0.0255,-0.0244,-0.0253,-0.0252,-0.0271,-0.0264,-0.0268,-0.029,-0.0305,-0.0313,-0.0307,-0.034,-0.0347,-0.0379,-0.0403,-0.038,-0.0382,-0.0433,-0.0434,-0.0435,-0.0461,0,0,0,0,0,0,-0.0257,-0.0255,-0.0258,-0.0252,-0.0252,-0.025,-0.0263,-0.0267,-0.0285,-0.0291,-0.0324,-0.0331,-0.0342,-0.0377,-0.038,-0.0404,-0.0383,-0.0432,-0.0434,-0.0434,-0.0459,-0.0463,-0.0465,0,0,0,0,0,-0.0258,-0.0257,-0.0258,-0.0257,-0.0253,-0.025,-0.0252,-0.027,-0.0285,-0.0295,-0.0321,-0.0331,-0.0386,-0.0378,-0.0383,-0.0407,-0.0432,-0.0433,-0.0434,-0.0458,-0.0462,-0.0465,0,0,0,0,0,0,-0.0275,-0.0261,-0.0263,-0.0259,-0.0261,-0.0258,-0.0269,-0.0277,-0.0303,-0.0318,-0.0335,-0.0343,-0.0382,-0.0385,-0.0376,-0.0425,-0.0412,-0.0414,-0.0428,-0.0432,-0.0435,-0.0439,-0.0384,0,0,0,0,0,-0.0276,-0.0271,-0.0262,-0.0263,-0.0263,-0.0268,-0.0273,-0.0284,-0.0299,-0.0313,-0.0335,-0.036,-0.0384,-0.0402,-0.042,-0.0442,-0.0443,-0.0461,-0.0464,-0.0467,-0.0472,-0.0489,-0.0494,-0.0439,-0.0439,-0.0439,0,0,-0.0283,-0.0275,-0.0273,-0.0266,-0.0269,-0.0274,-0.0276,-0.0288,-0.0304,-0.0316,-0.0354,-0.0373,-0.0392,-0.0423,-0.0441,-0.0434,-0.0481,-0.0468,-0.047,-0.0475,-0.0491,-0.0496,-0.0501,-0.044,-0.044,-0.044,0,0,-0.0292,-0.0286,-0.0287,-0.0286,-0.029,-0.0292,-0.0299,-0.0306,-0.0325,-0.0351,-0.037,-0.0402,-0.0431,-0.0453,-0.0466,-0.0493,-0.0496,-0.0501,-0.0522,-0.0538,-0.0543,-0.0547,-0.055,-0.0554,-0.0503,-0.0503,-0.0503,0,-0.0307,-0.0298,-0.0289,-0.0291,-0.0296,-0.0302,-0.0311,-0.0324,-0.0346,-0.0361,-0.0372,-0.0425,-0.0446,-0.0484,-0.0501,-0.0502,-0.0505,-0.0509,-0.0543,-0.0547,-0.0551,-0.0552,-0.0556,-0.0505,-0.0504,-0.0504,-0.0504,0,-0.0313,-0.0312,-0.0314,-0.0316,-0.032,-0.0329,-0.0338,-0.0357,-0.0379,-0.0392,-0.0437,-0.0462,-0.0496,-0.0508,-0.0518,-0.0558,-0.0549,-0.0544,-0.0534,-0.0558,-0.0557,-0.0562,-0.0507,-0.0506,-0.0506,-0.0505,0,0,-0.0341,-0.0321,-0.0327,-0.0323,-0.0335,-0.0334,-0.0363,-0.0383,-0.0398,-0.0436,-0.0462,-0.0515,-0.0531,-0.0547,-0.0564,-0.0582,-0.0616,-0.0581,-0.0581,-0.0583,-0.0645,-0.0568,-0.0564,-0.0618,-0.0619,-0.062,-0.0631,0,-0.0357,-0.0351,-0.0345,-0.0354,-0.0353,-0.0362,-0.0379,-0.0401,-0.0423,-0.0448,-0.0489,-0.0521,-0.0545,-0.0564,-0.0592,-0.0606,-0.0629,-0.0613,-0.0621,-0.0621,-0.055,-0.0567,-0.0623,-0.0634,-0.0635,-0.0636,-0.0636,0,-0.0377,-0.0364,-0.0369,-0.0356,-0.0358,-0.0372,-0.0393,-0.041,-0.0445,-0.0462,-0.0507,-0.0529,-0.058,-0.0588,-0.064,-0.0629,-0.0649,-0.0656,-0.0656,-0.0579,-0.0551,-0.0607,-0.0643,-0.0643,-0.0642,-0.0642,-0.0641,0,-0.0396,-0.0387,-0.0388,-0.0386,-0.0376,-0.0391,-0.0401,-0.0426,-0.0428,-0.048,-0.0479,-0.0545,-0.0563,-0.0612,-0.0637,-0.0646,-0.067,-0.068,-0.0629,-0.0623,-0.0678,-0.0674,-0.072,-0.072,-0.072,-0.072,-0.072,0,-0.0411,-0.0412,-0.0397,-0.0394,-0.0393,-0.0401,-0.0409,-0.0425,-0.0442,-0.0432,-0.0494,-0.0483,-0.057,-0.0587,-0.0632,-0.063,-0.067,-0.0635,-0.0623,-0.0687,-0.0684,-0.068,-0.0676,-0.072,-0.072,-0.072,-0.072,0,-0.0425,-0.0419,-0.0408,-0.0399,-0.0399,-0.0404,-0.0395,-0.039,-0.0416,-0.0405,-0.0419,-0.0442,-0.0455,-0.0515,-0.0569,-0.0594,-0.0618,-0.0609,-0.0659,-0.065,-0.0567,-0.0564,-0.0566,-0.0564,-0.0562,-0.056,-0.0558,0,-0.0422,-0.0422,-0.0406,-0.0393,-0.0391,-0.0391,-0.0379,-0.0389,-0.0373,-0.0358,-0.0341,-0.035,-0.0366,-0.0383,-0.0454,-0.0523,-0.0531,-0.0559,-0.0589,-0.0564,-0.0553,-0.0553,-0.0553,-0.0555,-0.0554,-0.0554,-0.0553,0,-0.0407,-0.0414,-0.0396,-0.0379,-0.0368,-0.0341,-0.033,-0.0311,-0.0307,-0.0306,-0.0262,-0.0279,-0.0271,-0.0326,-0.0371,-0.0425,-0.0555,-0.0537,-0.0543,-0.0571,-0.055,-0.0541,-0.0544,-0.0546,-0.0547,-0.0547,-0.0548,0,-0.0393,-0.038,-0.0371,-0.0355,-0.0338,-0.0316,-0.0303,-0.0267,-0.0251,-0.0232,-0.0201,-0.0216,-0.0229,-0.0269,-0.0309,-0.0353,-0.0375,-0.0419,-0.0432,-0.0441,-0.0399,-0.0354,-0.028,0,0,0,0,0,-0.0376,-0.0364,-0.0343,-0.0326,-0.0313,-0.0314,-0.0275,-0.026,-0.0237,-0.0192,-0.0201,-0.019,-0.0219,-0.0229,-0.0258,-0.0286,-0.04,-0.0323,-0.0462,-0.0504,-0.0512,-0.0478,0,0,0,0,0,0,-0.0359,-0.0346,-0.0338,-0.032,-0.0312,-0.0296,-0.0279,-0.0256,-0.0229,-0.0204,-0.0212,-0.0204,-0.0232,-0.0207,-0.0262,-0.0272,-0.0365,-0.0334,-0.0335,-0.0499,-0.0507,-0.0514,-0.0481,0,0,0,0,0]}]]